| time (UTC) | temp C | wind direction | speed KPH | gust KPH | rain 1hr cm | rain 24hr cm | rain mn cm | humidity % | barometer mb |
| 20260504033916 | 15 | 225 | 1.6 | 3.2 | 0.00 | 0.00 | 0.00 | 85 | 1012.7 |
| 20260504032936 | 15 | 225 | 3.2 | 6.4 | 0.00 | 0.00 | 0.00 | 85 | 1012.7 |
| 20260504031936 | 15 | 248 | 3.2 | 6.4 | 0.00 | 0.00 | 0.00 | 85 | 1012.6 |
| 20260504030936 | 15 | 0.0 | 1.6 | 0.00 | 0.00 | 0.00 | 85 | 1012.6 | |
| 20260504025916 | 15 | 248 | 3.2 | 8.0 | 0.00 | 0.00 | 0.00 | 84 | 1012.6 |
| 20260504024936 | 15 | 270 | 3.2 | 4.8 | 0.00 | 0.00 | 0.00 | 84 | 1012.6 |
| 20260504023916 | 15 | 248 | 3.2 | 4.8 | 0.00 | 0.00 | 0.00 | 84 | 1012.6 |
| 20260504022916 | 15 | 270 | 4.8 | 4.8 | 0.00 | 0.00 | 0.00 | 84 | 1012.5 |
| 20260504021916 | 15 | 225 | 1.6 | 3.2 | 0.00 | 0.00 | 0.00 | 84 | 1012.5 |
| 20260504020916 | 15 | 225 | 3.2 | 3.2 | 0.00 | 0.00 | 0.00 | 84 | 1012.6 |
| 20260504015916 | 15 | 270 | 1.6 | 3.2 | 0.00 | 0.00 | 0.00 | 84 | 1012.6 |
| 20260504014916 | 15 | 225 | 1.6 | 3.2 | 0.00 | 0.00 | 0.00 | 84 | 1012.5 |
| 20260504013916 | 15 | 248 | 1.6 | 3.2 | 0.00 | 0.00 | 0.00 | 84 | 1012.3 |
| 20260504012916 | 15 | 270 | 1.6 | 3.2 | 0.00 | 0.00 | 0.00 | 83 | 1012.2 |
| 20260504011916 | 15 | 248 | 1.6 | 3.2 | 0.00 | 0.00 | 0.00 | 83 | 1012.3 |
| 20260504010916 | 15 | 225 | 1.6 | 3.2 | 0.00 | 0.00 | 0.00 | 83 | 1012.4 |
| 20260504005956 | 15 | 225 | 3.2 | 6.4 | 0.00 | 0.00 | 0.00 | 83 | 1012.5 |
| 20260504004916 | 15 | 225 | 3.2 | 4.8 | 0.00 | 0.00 | 0.00 | 83 | 1012.4 |
| 20260504003916 | 15 | 248 | 3.2 | 8.0 | 0.00 | 0.00 | 0.00 | 83 | 1012.3 |
| 20260504002916 | 15 | 225 | 4.8 | 8.0 | 0.00 | 0.00 | 0.00 | 82 | 1012.3 |
| 20260504001916 | 15 | 270 | 1.6 | 3.2 | 0.00 | 0.00 | 0.00 | 82 | 1012.2 |
| 20260504000916 | 15 | 270 | 1.6 | 3.2 | 0.00 | 0.00 | 0.00 | 81 | 1012.2 |
| 20260503235916 | 16 | 225 | 4.8 | 8.0 | 0.00 | 0.00 | 0.00 | 80 | 1012.2 |
| 20260503234916 | 16 | 270 | 1.6 | 6.4 | 0.00 | 0.00 | 0.00 | 79 | 1012.2 |
| 20260503233916 | 16 | 270 | 4.8 | 8.0 | 0.00 | 0.00 | 0.00 | 79 | 1012.2 |
| 20260503232916 | 16 | 248 | 4.8 | 6.4 | 0.00 | 0.00 | 0.00 | 78 | 1012.2 |
| 20260503231916 | 16 | 225 | 4.8 | 9.7 | 0.00 | 0.00 | 0.00 | 77 | 1012.2 |
| 20260503230936 | 16 | 270 | 1.6 | 3.2 | 0.00 | 0.00 | 0.00 | 76 | 1012.2 |
| 20260503225916 | 16 | 270 | 3.2 | 4.8 | 0.00 | 0.00 | 0.00 | 76 | 1012.3 |
| 20260503224916 | 16 | 270 | 4.8 | 8.0 | 0.00 | 0.00 | 0.00 | 75 | 1012.4 |
| 20260503223916 | 17 | 270 | 4.8 | 8.0 | 0.00 | 0.00 | 0.00 | 74 | 1012.4 |
| 20260503222916 | 17 | 225 | 4.8 | 8.0 | 0.00 | 0.00 | 0.00 | 74 | 1012.4 |
| 20260503221916 | 17 | 270 | 3.2 | 8.0 | 0.00 | 0.00 | 0.00 | 73 | 1012.4 |
| 20260503220936 | 17 | 270 | 6.4 | 11.3 | 0.00 | 0.00 | 0.00 | 72 | 1012.4 |
| 20260503215916 | 17 | 270 | 3.2 | 6.4 | 0.00 | 0.00 | 0.00 | 72 | 1012.4 |
| 20260503214916 | 17 | 270 | 6.4 | 9.7 | 0.00 | 0.00 | 0.00 | 71 | 1012.4 |
| 20260503213917 | 17 | 270 | 4.8 | 6.4 | 0.00 | 0.00 | 0.00 | 71 | 1012.4 |
| 20260503212956 | 17 | 270 | 3.2 | 4.8 | 0.00 | 0.00 | 0.00 | 70 | 1012.4 |
| 20260503211936 | 17 | 270 | 3.2 | 4.8 | 0.00 | 0.00 | 0.00 | 69 | 1012.4 |
| 20260503210936 | 17 | 270 | 6.4 | 8.0 | 0.00 | 0.00 | 0.00 | 69 | 1012.5 |
| 20260503205957 | 17 | 270 | 6.4 | 9.7 | 0.00 | 0.00 | 0.00 | 68 | 1012.4 |
| 20260503204916 | 17 | 270 | 4.8 | 8.0 | 0.00 | 0.00 | 0.00 | 67 | 1012.3 |
| 20260503203916 | 18 | 270 | 8.0 | 11.3 | 0.00 | 0.00 | 0.00 | 67 | 1012.4 |
| 20260503202917 | 18 | 270 | 11.3 | 14.5 | 0.00 | 0.00 | 0.00 | 66 | 1012.4 |
| 20260503201916 | 18 | 270 | 6.4 | 11.3 | 0.00 | 0.00 | 0.00 | 65 | 1012.4 |
| 20260503200916 | 18 | 248 | 8.0 | 14.5 | 0.00 | 0.00 | 0.00 | 64 | 1012.3 |
| 20260503195917 | 18 | 270 | 8.0 | 14.5 | 0.00 | 0.00 | 0.00 | 62 | 1012.3 |
| 20260503194917 | 18 | 270 | 8.0 | 19.3 | 0.00 | 0.00 | 0.00 | 62 | 1012.3 |
| 20260503193916 | 18 | 270 | 6.4 | 11.3 | 0.00 | 0.00 | 0.00 | 61 | 1012.2 |
| 20260503192917 | 18 | 270 | 12.9 | 19.3 | 0.00 | 0.00 | 0.00 | 59 | 1011.9 |
| 20260503191917 | 19 | 270 | 8.0 | 12.9 | 0.00 | 0.00 | 0.00 | 58 | 1011.8 |
| 20260503190937 | 19 | 225 | 4.8 | 6.4 | 0.00 | 0.00 | 0.00 | 57 | 1011.6 |
| 20260503185917 | 19 | 225 | 3.2 | 4.8 | 0.00 | 0.00 | 0.00 | 56 | 1011.4 |
| 20260503184936 | 19 | 293 | 4.8 | 8.0 | 0.00 | 0.00 | 0.00 | 56 | 1011.2 |
| 20260503183917 | 20 | 270 | 8.0 | 14.5 | 0.00 | 0.00 | 0.00 | 54 | 1011.1 |
| 20260503182936 | 20 | 270 | 8.0 | 11.3 | 0.00 | 0.00 | 0.00 | 53 | 1011.1 |
| 20260503181916 | 20 | 293 | 6.4 | 12.9 | 0.00 | 0.00 | 0.00 | 50 | 1010.8 |
| 20260503180917 | 21 | 293 | 16.1 | 22.5 | 0.00 | 0.00 | 0.00 | 48 | 1010.8 |
| 20260503175917 | 21 | 270 | 8.0 | 11.3 | 0.00 | 0.00 | 0.00 | 47 | 1010.7 |
| 20260503174917 | 21 | 270 | 12.9 | 17.7 | 0.00 | 0.00 | 0.00 | 46 | 1010.5 |
| 20260503173917 | 22 | 293 | 9.7 | 12.9 | 0.00 | 0.00 | 0.00 | 45 | 1010.3 |
| 20260503172917 | 22 | 248 | 11.3 | 16.1 | 0.00 | 0.00 | 0.00 | 44 | 1010.2 |
| 20260503171937 | 22 | 270 | 9.7 | 14.5 | 0.00 | 0.00 | 0.00 | 43 | 1010.1 |
| 20260503170917 | 22 | 270 | 8.0 | 11.3 | 0.00 | 0.00 | 0.00 | 42 | 1010.1 |
| 20260503150916 | 26 | 225 | 20.9 | 30.6 | 0.00 | 0.00 | 0.00 | 32 | 1009.6 |
| 20260503130916 | 26 | 270 | 6.4 | 9.7 | 0.00 | 0.00 | 0.00 | 33 | 1010.6 |
| 20260503080917 | 20 | 225 | 1.6 | 4.8 | 0.00 | 0.00 | 0.00 | 62 | 1013.0 |
| 20260503072916 | 20 | 113 | 4.8 | 8.0 | 0.00 | 0.00 | 0.00 | 64 | 1013.2 |
| 20260503071916 | 19 | 135 | 6.4 | 8.0 | 0.00 | 0.00 | 0.00 | 64 | 1013.1 |
| 20260503070916 | 18 | 90 | 3.2 | 3.2 | 0.00 | 0.00 | 0.00 | 67 | 1013.1 |
| 20260503054916 | 15 | 0.0 | 0.0 | 0.00 | 0.00 | 0.00 | 85 | 1013.5 | |
| 20260503053916 | 14 | 0.0 | 0.0 | 0.00 | 0.00 | 0.00 | 88 | 1013.4 | |
| 20260503052937 | 13 | 0.0 | 1.6 | 0.00 | 0.00 | 0.00 | 90 | 1013.5 | |
| 20260503051916 | 12 | 135 | 4.8 | 8.0 | 0.00 | 0.00 | 0.00 | 91 | 1013.3 |
| 20260503050916 | 12 | 135 | 3.2 | 6.4 | 0.00 | 0.00 | 0.00 | 89 | 1013.5 |
| 20260503045916 | 11 | 135 | 1.6 | 1.6 | 0.00 | 0.00 | 0.00 | 90 | 1013.7 |
| 20260503044936 | 11 | 0.0 | 0.0 | 0.00 | 0.00 | 0.00 | 91 | 1013.7 | |
| 20260503043917 | 11 | 113 | 1.6 | 1.6 | 0.00 | 0.00 | 0.00 | 90 | 1013.9 |
| 20260503042916 | 11 | 0.0 | 0.0 | 0.00 | 0.00 | 0.00 | 90 | 1014.0 | |
| 20260503041936 | 11 | 0.0 | 0.0 | 0.00 | 0.00 | 0.00 | 90 | 1014.0 | |
| 20260503040916 | 11 | 135 | 1.6 | 1.6 | 0.00 | 0.00 | 0.00 | 89 | 1014.0 |
| 20260503035916 | 11 | 0.0 | 0.0 | 0.00 | 0.00 | 0.00 | 89 | 1014.0 | |
| 20260503034937 | 11 | 0.0 | 0.0 | 0.00 | 0.00 | 0.00 | 89 | 1014.0 |